Showing default

DRTS, 27516

Orbit data source: Space-Track

DRTS, 27516 is a payload satellite owned by NASDA (JP) in GEO that was launched on Tue, 10 Sep 2002 UTC via an H-IIA 2024 launch vehicle from the Tanegashima Space Center (TNSTA). Payload-class satellites include a variety of spacecraft equipped with specific instruments for various scientific and technological missions. These include communications satellites like Starlink; space stations such as the ISS; scientific satellites like the Hubble; Earth observation satellites from companies like Planet Labs, Umbra, and HawkEye 360; GPS; miniature CubeSats for education and research; and military/defense satellites.

Not visible in the next 10 days
Identifier
27516, 2002-042B
Orbit
GEO
Country
Flag of JPJP / JPN
Related business
Manufacturer
MELCO
Mission
Non-operational Civil Communications
Bus & Motor
DRTS, BT-4 LAPS
Mass
2,800 kg wet, 1,300 kg dry
Launch date (UTC)
2002-09-10 (23 years ago)
Launch vehicle
H-IIA 2024
Launch site
Tanegashima Space Center (TNSTA)
Object type
Payload
Rocket body
Debris
Shape & HBR
Box + 2 Pan, 8.5 m
Radar Cross Section
17.565 m², Large (>1 m²)

Expand to show TLE details & history
Last TLE update: 20 hours ago

TLE from 20 hours ago
0 DRTS
1 27516U 02042B   25306.48698469  .00000104  00000-0  00000+0 0  9993
2 27516  10.8074  43.7834 0021481 217.0049  10.9979  0.99269483 43339
Epoch: 2025-11-02T11:41Z
TLE epoch observation values (Epoch: 2025-11-02T11:41:15.477Z)
Latitude
-8.02149°
Longitude
53.98043°
Altitude
35,981.495 km
Speed
3.071 km/s
True Right ascension
18h 05m 11s
True Declination
-8° 00' 49"
Sunlit
Object was in daylight at epoch
Visualization orbit readout
Latitude
Unknown
Longitude
Unknown
Altitude
Unknown
Speed
Unknown
Apparent Right ascension
Unknown
Apparent Declination
Unknown
Sunlit
N/A
Visualization observer readout
Local Sidereal Time
03:30:35
Azimuth
Unknown
Elevation
Unknown
Doppler factor
Unknown
Orbital elements
Apogee altitude
36,162.132 km
Perigee altitude
35,979.762 km
Semi-major axis
42,449.084 km
Eccentricity
0.00215
Inclination
10.8074°
RAAN
43.7834°
Arg. of periapsis
217.0049°
True anomaly
11.04498°
Mean anomaly
10.9979°
Eccentric anomaly
11.02143°
Mean motion
0.24817 °/min
Orbital period
1,450.65 mins
BSTAR
0
Loading maneuver chart data...
Computing Atmospheric mass density...
Loading historical data...
Loading historical data...
Loading historical data...
Loading historical data...
Loading historical data...
Loading historical data...
Loading historical data...

Documentation

Showing up to 5 results
|